ARG1613 SAZM-SABE

Flight info

Callsign ARG1613
Flight time 0h 41m
Altitude 29000
Route PULPA1G PULPA DCT TENIL TENIL8R
Aircraft B738/M-SDE2E3FGHIRWXY/LB1

Departure

Time 2026-04-22 17:29
Airport Ástor Piazzola International Airport (SAZM)

Arrival

Time 2026-04-22 18:11
Airport Aeroparque Jorge Newbery (SABE)
Time Latitude Longitude Altitude Speed Heading
2026-04-22 16:59 -37.93334 -57.58070 53 ft 0 kts 334°
2026-04-22 17:21 -37.93359 -57.58045 53 ft 4 kts 295°
2026-04-22 17:22 -37.93366 -57.58014 53 ft 1 kts 285°
2026-04-22 17:24 -37.93366 -57.58020 53 ft 2 kts 271°
2026-04-22 17:24 -37.93377 -57.58026 51 ft 2 kts 177°
2026-04-22 17:24 -37.93383 -57.58007 51 ft 5 kts 101°
2026-04-22 17:24 -37.93407 -57.57916 52 ft 17 kts 119°
2026-04-22 17:25 -37.93474 -57.57764 53 ft 20 kts 119°
2026-04-22 17:25 -37.93542 -57.57612 53 ft 20 kts 119°
2026-04-22 17:25 -37.93607 -57.57464 50 ft 19 kts 119°
2026-04-22 17:25 -37.93670 -57.57321 53 ft 18 kts 119°
2026-04-22 17:26 -37.93731 -57.57183 49 ft 18 kts 119°
2026-04-22 17:26 -37.93790 -57.57050 51 ft 17 kts 119°
2026-04-22 17:26 -37.93847 -57.56921 50 ft 16 kts 119°
2026-04-22 17:26 -37.93902 -57.56797 53 ft 16 kts 119°
2026-04-22 17:27 -37.93954 -57.56681 53 ft 15 kts 119°
2026-04-22 17:27 -37.94004 -57.56567 50 ft 14 kts 119°
2026-04-22 17:27 -37.94027 -57.56451 52 ft 14 kts 69°
2026-04-22 17:27 -37.93983 -57.56347 52 ft 13 kts 47°
2026-04-22 17:28 -37.93912 -57.56357 52 ft 0 kts 303°
2026-04-22 17:29 -37.93819 -57.56545 54 ft 62 kts 302°
2026-04-22 17:29 -37.93451 -57.57268 50 ft 131 kts 303°
2026-04-22 17:29 -37.92844 -57.58406 293 ft 170 kts 300°
2026-04-22 17:29 -37.92197 -57.59700 1043 ft 179 kts 300°
2026-04-22 17:30 -37.91529 -57.61092 1905 ft 187 kts 302°
2026-04-22 17:30 -37.90795 -57.62574 2542 ft 212 kts 302°
2026-04-22 17:30 -37.89968 -57.64253 2845 ft 237 kts 302°
2026-04-22 17:30 -37.89085 -57.66047 3503 ft 241 kts 302°
2026-04-22 17:31 -37.88166 -57.67912 4009 ft 255 kts 301°
2026-04-22 17:31 -37.87233 -57.69805 4910 ft 254 kts 301°
2026-04-22 17:31 -37.86308 -57.71677 5932 ft 251 kts 301°
2026-04-22 17:31 -37.85211 -57.73419 6683 ft 259 kts 320°
2026-04-22 17:32 -37.83591 -57.74474 7442 ft 268 kts 342°
2026-04-22 17:32 -37.81707 -57.74715 8200 ft 277 kts 358°
2026-04-22 17:32 -37.79756 -57.74587 9013 ft 281 kts
2026-04-22 17:32 -37.77789 -57.74406 9674 ft 285 kts
2026-04-22 17:33 -37.76477 -57.74280 9916 ft 285 kts
2026-04-22 17:33 -37.73780 -57.74031 10340 ft 309 kts
2026-04-22 17:33 -37.71550 -57.73837 10553 ft 333 kts
2026-04-22 17:33 -37.69174 -57.73635 10901 ft 348 kts
2026-04-22 17:34 -37.66738 -57.73428 11555 ft 353 kts
2026-04-22 17:34 -37.64294 -57.73221 12521 ft 346 kts
2026-04-22 17:34 -37.61932 -57.73020 13788 ft 333 kts 359°
2026-04-22 17:34 -37.59660 -57.72829 14903 ft 321 kts 359°
2026-04-22 17:35 -37.57438 -57.72647 15782 ft 320 kts 358°
2026-04-22 17:35 -37.55227 -57.72471 16444 ft 323 kts 358°
2026-04-22 17:35 -37.52965 -57.72292 17103 ft 327 kts 358°
2026-04-22 17:35 -37.50689 -57.72110 17777 ft 330 kts 358°
2026-04-22 17:36 -37.48384 -57.71924 18435 ft 332 kts 357°
2026-04-22 17:36 -37.46066 -57.71737 19024 ft 335 kts 357°
2026-04-22 17:36 -37.43734 -57.71548 19610 ft 337 kts 358°
2026-04-22 17:36 -37.41380 -57.71358 20187 ft 340 kts 358°
2026-04-22 17:37 -37.39011 -57.71168 20751 ft 342 kts 358°
2026-04-22 17:37 -37.36625 -57.70976 21320 ft 345 kts 357°
2026-04-22 17:37 -37.34219 -57.70787 21885 ft 347 kts 357°
2026-04-22 17:37 -37.31798 -57.70599 22460 ft 349 kts 357°
2026-04-22 17:38 -37.29363 -57.70409 23036 ft 351 kts 357°
2026-04-22 17:38 -37.26913 -57.70218 23563 ft 354 kts 357°
2026-04-22 17:38 -37.24438 -57.70026 24009 ft 357 kts 357°
2026-04-22 17:38 -37.21981 -57.69834 24456 ft 359 kts 357°
2026-04-22 17:39 -37.19479 -57.69639 24904 ft 361 kts 357°
2026-04-22 17:39 -37.16960 -57.69443 25341 ft 364 kts 357°
2026-04-22 17:39 -37.11878 -57.69046 26183 ft 368 kts 356°
2026-04-22 17:40 -37.09299 -57.68846 26596 ft 371 kts 356°
2026-04-22 17:40 -37.06719 -57.68644 27009 ft 373 kts 356°
2026-04-22 17:40 -37.04114 -57.68442 27408 ft 375 kts 356°
2026-04-22 17:40 -37.01540 -57.68242 27807 ft 378 kts 356°
2026-04-22 17:41 -36.98901 -57.68077 28183 ft 378 kts 353°
2026-04-22 17:41 -36.96287 -57.68199 28556 ft 376 kts 348°
2026-04-22 17:41 -36.93672 -57.68486 28942 ft 377 kts 347°
2026-04-22 17:42 -36.88350 -57.69180 29039 ft 393 kts 347°
2026-04-22 17:42 -36.83757 -57.69747 29037 ft 406 kts 348°
2026-04-22 17:43 -36.77033 -57.70504 29037 ft 423 kts 348°
2026-04-22 17:43 -36.71081 -57.71141 29046 ft 435 kts 349°
2026-04-22 17:44 -36.65041 -57.71776 29025 ft 438 kts 349°
2026-04-22 17:44 -36.58957 -57.72413 29044 ft 437 kts 349°
2026-04-22 17:45 -36.52899 -57.73053 29041 ft 437 kts 349°
2026-04-22 17:45 -36.46852 -57.73692 29044 ft 437 kts 349°
2026-04-22 17:46 -36.40790 -57.74333 29044 ft 436 kts 349°
2026-04-22 17:46 -36.34779 -57.74968 29054 ft 436 kts 349°
2026-04-22 17:47 -36.28859 -57.75581 29037 ft 411 kts 348°
2026-04-22 17:47 -36.26064 -57.75866 29029 ft 395 kts 348°
2026-04-22 17:47 -36.23369 -57.76143 29048 ft 382 kts 348°
2026-04-22 17:47 -36.20717 -57.76425 28861 ft 386 kts 348°
2026-04-22 17:48 -36.18946 -57.76616 28683 ft 383 kts 348°
2026-04-22 17:48 -36.15418 -57.76992 28174 ft 377 kts 348°
2026-04-22 17:48 -36.12810 -57.77268 27760 ft 374 kts 348°
2026-04-22 17:48 -36.10227 -57.77540 27357 ft 370 kts 347°
2026-04-22 17:49 -36.07674 -57.77808 26956 ft 367 kts 347°
2026-04-22 17:49 -36.05984 -57.77986 26694 ft 365 kts 347°
2026-04-22 17:49 -36.02611 -57.78339 26165 ft 362 kts 347°
2026-04-22 17:49 -36.00111 -57.78601 25771 ft 359 kts 347°
2026-04-22 17:50 -35.98458 -57.78774 25519 ft 358 kts 347°
2026-04-22 17:50 -35.95179 -57.79118 24993 ft 356 kts 347°
2026-04-22 17:50 -35.93509 -57.79293 24728 ft 355 kts 347°
2026-04-22 17:50 -35.91095 -57.79545 24360 ft 353 kts 347°
2026-04-22 17:51 -35.88647 -57.79800 23976 ft 351 kts 347°
2026-04-22 17:51 -35.86214 -57.80054 23566 ft 350 kts 347°
2026-04-22 17:51 -35.83792 -57.80307 23127 ft 348 kts 347°
2026-04-22 17:51 -35.81385 -57.80557 22718 ft 346 kts 347°
2026-04-22 17:52 -35.78996 -57.80805 22331 ft 343 kts 347°
2026-04-22 17:52 -35.76624 -57.81051 21952 ft 340 kts 347°
2026-04-22 17:52 -35.74261 -57.81297 21517 ft 339 kts 347°
2026-04-22 17:52 -35.71912 -57.81542 21119 ft 338 kts 347°
2026-04-22 17:53 -35.69608 -57.81781 20742 ft 336 kts 347°
2026-04-22 17:53 -35.67282 -57.82022 20377 ft 334 kts 347°
2026-04-22 17:53 -35.64977 -57.82261 20005 ft 332 kts 347°
2026-04-22 17:53 -35.62685 -57.82499 19646 ft 329 kts 347°
2026-04-22 17:54 -35.60404 -57.82736 19285 ft 328 kts 347°
2026-04-22 17:54 -35.58132 -57.82971 18926 ft 326 kts 348°
2026-04-22 17:54 -35.55875 -57.83205 18576 ft 324 kts 348°
2026-04-22 17:54 -35.53665 -57.83435 18184 ft 323 kts 347°
2026-04-22 17:55 -35.51416 -57.83686 17727 ft 323 kts 347°
2026-04-22 17:55 -35.49189 -57.83941 17352 ft 321 kts 347°
2026-04-22 17:55 -35.46974 -57.84197 16984 ft 319 kts 347°
2026-04-22 17:55 -35.44774 -57.84451 16624 ft 317 kts 347°
2026-04-22 17:56 -35.42573 -57.84704 16275 ft 315 kts 347°
2026-04-22 17:56 -35.40397 -57.84954 15922 ft 313 kts 347°
2026-04-22 17:56 -35.38263 -57.85199 15584 ft 311 kts 347°
2026-04-22 17:56 -35.36113 -57.85446 15242 ft 310 kts 347°
2026-04-22 17:57 -35.34039 -57.86033 14715 ft 304 kts 331°
2026-04-22 17:57 -35.32105 -57.87080 14287 ft 304 kts 329°
2026-04-22 17:57 -35.30191 -57.88163 13925 ft 303 kts 329°
2026-04-22 17:57 -35.28282 -57.89248 13531 ft 302 kts 329°
2026-04-22 17:58 -35.26370 -57.90331 13107 ft 303 kts 329°
2026-04-22 17:58 -35.24458 -57.91409 12681 ft 303 kts 329°
2026-04-22 17:58 -35.22533 -57.92488 12283 ft 304 kts 329°
2026-04-22 17:58 -35.20604 -57.93566 11879 ft 305 kts 329°
2026-04-22 17:59 -35.18672 -57.94643 11478 ft 306 kts 328°
2026-04-22 17:59 -35.16754 -57.95710 11085 ft 306 kts 328°
2026-04-22 17:59 -35.14810 -57.96790 10698 ft 307 kts 328°
2026-04-22 17:59 -35.12874 -57.97863 10450 ft 303 kts 328°
2026-04-22 18:00 -35.11583 -57.98576 10314 ft 298 kts 328°
2026-04-22 18:00 -35.09124 -57.99932 10132 ft 287 kts 328°
2026-04-22 18:00 -35.07326 -58.00925 9839 ft 283 kts 328°
2026-04-22 18:00 -35.05533 -58.01919 9536 ft 282 kts 328°
2026-04-22 18:01 -35.03748 -58.02909 9220 ft 282 kts 328°
2026-04-22 18:01 -35.01964 -58.03897 8921 ft 281 kts 328°
2026-04-22 18:01 -35.00177 -58.04887 8610 ft 282 kts 328°
2026-04-22 18:01 -34.98389 -58.05875 8282 ft 281 kts 329°
2026-04-22 18:02 -34.96621 -58.06849 7964 ft 276 kts 329°
2026-04-22 18:02 -34.94873 -58.07813 7655 ft 277 kts 329°
2026-04-22 18:02 -34.93115 -58.08785 7342 ft 278 kts 329°
2026-04-22 18:02 -34.91345 -58.09762 7023 ft 280 kts 329°
2026-04-22 18:03 -34.89562 -58.10744 6676 ft 279 kts 330°
2026-04-22 18:03 -34.87796 -58.11716 6359 ft 280 kts 330°
2026-04-22 18:03 -34.86035 -58.12685 6021 ft 282 kts 330°
2026-04-22 18:03 -34.84250 -58.13669 5726 ft 282 kts 330°
2026-04-22 18:04 -34.82472 -58.14645 5368 ft 277 kts 331°
2026-04-22 18:04 -34.80842 -58.15539 5101 ft 271 kts 332°
2026-04-22 18:04 -34.79133 -58.16478 4801 ft 270 kts 332°
2026-04-22 18:04 -34.77431 -58.17415 4617 ft 265 kts 332°
2026-04-22 18:05 -34.75785 -58.18318 4491 ft 254 kts 332°
2026-04-22 18:05 -34.74190 -58.19174 4333 ft 245 kts 332°
2026-04-22 18:05 -34.72675 -58.20009 4240 ft 235 kts 332°
2026-04-22 18:05 -34.71200 -58.20824 4065 ft 232 kts 332°
2026-04-22 18:06 -34.69732 -58.21633 3838 ft 230 kts 333°
2026-04-22 18:06 -34.68321 -58.22407 3627 ft 220 kts 333°
2026-04-22 18:06 -34.66944 -58.23160 3325 ft 212 kts 332°
2026-04-22 18:06 -34.65722 -58.24036 3058 ft 197 kts 308°
2026-04-22 18:07 -34.64966 -58.25342 2863 ft 183 kts 300°
2026-04-22 18:07 -34.64264 -58.26605 2683 ft 175 kts 300°
2026-04-22 18:07 -34.63614 -58.27765 2524 ft 160 kts 300°
2026-04-22 18:07 -34.62998 -58.28868 2330 ft 156 kts 301°
2026-04-22 18:08 -34.62387 -58.29967 2139 ft 158 kts 300°
2026-04-22 18:08 -34.61776 -58.31062 1988 ft 155 kts 300°
2026-04-22 18:08 -34.61156 -58.32144 1744 ft 156 kts 301°
2026-04-22 18:08 -34.60543 -58.33224 1574 ft 155 kts 301°
2026-04-22 18:09 -34.59969 -58.34311 1384 ft 154 kts 298°
2026-04-22 18:09 -34.59384 -58.35410 1154 ft 156 kts 301°
2026-04-22 18:09 -34.58767 -58.36491 922 ft 156 kts 303°
2026-04-22 18:09 -34.58154 -58.37579 672 ft 156 kts 301°
2026-04-22 18:10 -34.57551 -58.38661 380 ft 153 kts 302°
2026-04-22 18:10 -34.56951 -58.39725 213 ft 150 kts 301°
2026-04-22 18:10 -34.56357 -58.40800 55 ft 153 kts 303°
2026-04-22 18:10 -34.55805 -58.41796 23 ft 118 kts 304°
2026-04-22 18:11 -34.55540 -58.42274 27 ft 35 kts 304°
2026-04-22 18:11 -34.55426 -58.42475 26 ft 19 kts 305°
2026-04-22 18:11 -34.55372 -58.42483 24 ft 9 kts 47°
2026-04-22 18:11 -34.55365 -58.42412 24 ft 9 kts 97°
2026-04-22 18:12 -34.55382 -58.42357 26 ft 0 kts 123°
2026-04-22 18:12 -34.55403 -58.42320 24 ft 9 kts 127°
2026-04-22 18:13 -34.55442 -58.42258 26 ft 9 kts 127°
2026-04-22 18:13 -34.55482 -58.42192 27 ft 13 kts 127°
2026-04-22 18:13 -34.55548 -58.42087 25 ft 16 kts 127°
2026-04-22 18:13 -34.55613 -58.41977 24 ft 16 kts 123°
2026-04-22 18:14 -34.55672 -58.41868 26 ft 15 kts 123°
2026-04-22 18:14 -34.55729 -58.41765 24 ft 14 kts 123°
2026-04-22 18:14 -34.55775 -58.41659 24 ft 14 kts 117°
2026-04-22 18:14 -34.55817 -58.41557 25 ft 13 kts 117°
2026-04-22 18:15 -34.55858 -58.41459 27 ft 13 kts 117°
2026-04-22 18:15 -34.55899 -58.41365 25 ft 12 kts 117°
2026-04-22 18:15 -34.55872 -58.41288 24 ft 9 kts 26°
2026-04-22 18:15 -34.55837 -58.41283 25 ft 3 kts 12°
2026-04-22 18:16 -34.55819 -58.41269 24 ft 3 kts 34°
2026-04-22 18:16 -34.55804 -58.41255 24 ft 3 kts 36°
2026-04-22 18:16 -34.55798 -58.41250 24 ft 0 kts 36°